Regional Weather Roundup
Issued by NWS Wakefield, VA

Home | Current Version | Previous Version | Graphics & Text | Print | Product List | Glossary On
Versions: 1 2 3 4 5 6 7 8 9 10 11 12 13 14 15 16 17 18 19 20 21 22 23 24 25 26 27 28 29 30 31 32 33 34 35 36 37 38 39 40 41 42 43 44 45 46 47 48 49 50
000
ASUS41 KAKQ 310812
RWRAKQ

REGIONAL WEATHER ROUNDUP
NATIONAL WEATHER SERVICE WAKEFIELD VA
400 AM EDT MON AUG 31 2015

Note: "fair" indicates few or no clouds below 12,000 feet with no
significant weather and/or obstructions to visibility. * = Denotes
station may not report precipitation (e.g., rain,snow,etc.),
thunder or fog.

VAZ042-051-052>054-056-310900-
NORTHERN VIRGINIA

CITY           SKY/WX    TMP DP  RH WIND       PRES   REMARKS
WASH NATIONAL  CLOUDY    76  67  73 S8        30.07S
DULLES         CLOUDY    73  66  78 S3        30.07S
FORT BELVOIR   CLOUDY    71  68  90 CALM      30.06F
QUANTICO       CLOUDY    75  65  70 SW6       30.08S
FREDERICKSBRG* CLOUDY    75  67  76 CALM      30.06F
STAFFORD*      CLOUDY    69  65  89 CALM      30.12S
WARRENTON      CLOUDY    73  68  87 CALM      30.07S
CULPEPER*      CLOUDY    71  67  87 CALM      30.08S
MANASSAS*      CLOUDY    72  70  94 CALM      30.07S
LEESBURG*      CLOUDY    73  72  94 S6        30.08S
WINCHESTER     CLOUDY    73  63  68 W3        30.08S
FRONT ROYAL*   CLOUDY    72  64  78 S5        30.08S
LURAY*         CLOUDY    70  64  83 CALM      30.10F
$$

VAZ048-049-060>072-079>083-310900-
CENTRAL AND SOUTH CENTRAL VIRGINIA

CITY           SKY/WX    TMP DP  RH WIND       PRES   REMARKS
RICHMOND       CLOUDY    74  66  76 S3        30.10R
CHESTERFIELD*  CLOUDY    73  57  56 CALM      30.11S
PETERSBURG*    CLOUDY    71  71 100 CALM      30.11S
HANOVER        CLOUDY    71  67  87 CALM      30.11S
TAPPAHANNOCK*  CLOUDY    72  64  76 CALM      30.09F
QUINTON*       CLOUDY    72  67  86 CALM      30.09S
CHARLOTTSVILLE CLOUDY    72  66  81 S3        30.09S
GORDONSVILLE*  CLOUDY    69  67  95 W6        30.08F
ORANGE*        CLOUDY    70  68  94 CALM      30.10S
LOUISA*        CLOUDY    73  66  78 CALM      30.08F
BUMPASS*       CLOUDY    71  66  84 CALM      30.09S
FARMVILLE*     CLOUDY    71  69  91 CALM      30.10S
CREWE*         CLOUDY   N/A N/A N/A CALM      30.10F
FORT PICKETT*  CLOUDY    72  66  82 CALM      30.11F
CHASE CITY*    CLOUDY    73  71  93 CALM      30.12S
CLARKSVILLE*   CLOUDY    70  66  88 CALM      30.11S
SOUTH HILL*    CLOUDY    70  67  91 CALM      30.17S
LAWRENCEVILLE* CLOUDY    70  68  94 CALM      30.11F
EMPORIA*       CLOUDY    70  66  88 CALM      30.12S
$$

VAZ088>098-310900-
SOUTHEAST VIRGINIA

CITY           SKY/WX    TMP DP  RH WIND       PRES   REMARKS
NORFOLK        CLOUDY    75  69  81 S6        30.10S
VIRGINIA BEACH CLOUDY    76  70  82 CALM      30.09S
NORFOLK NAVAL  CLOUDY    76  69  79 SW5       30.11S
WEST POINT*    CLOUDY    76  67  74 CALM      30.11S
SALUDA*        PTSUNNY   73  69  87 S5        30.08F
NEWPORT NEWS   CLOUDY    76  69  79 SW5       30.10S
LANGLEY AFB    CLOUDY    75  70  84 W3        30.08F
FORT EUSTIS    CLOUDY    76  76 100 SW3       30.08S
WILLIAMSBURG*  CLOUDY    77  72  83 CALM      30.11R
HR EXEC AP*      N/A     70  66  88 CALM      30.13R
FRANKLIN*      CLOUDY    73  67  81 CALM      30.11S
WAKEFIELD      CLOUDY    72  67  84 CALM      30.10F
$$

VAZ020-022-025-037-045-310900-
WEST CENTRAL AND SOUTHWEST VIRGINIA

CITY           SKY/WX    TMP DP  RH WIND       PRES   REMARKS
STAUNTON*      CLOUDY    71  66  82 CALM      30.13F
WAYNESBORO*    CLOUDY    70  61  74 SW3       30.13F
HOT SPRINGS VA CLOUDY    66  55  68 W6        30.23S
LYNCHBURG      LGT RAIN  68  65  90 CALM      30.14S
DANVILLE       CLOUDY    70  66  87 S3        30.12F
SOUTH BOSTON*  CLOUDY    68  67  96 CALM      30.11F
MARTINSVILLE   CLOUDY    68  68 100 CALM      30.15S FOG
ROANOKE        LGT RAIN  69  66  90 CALM      30.15S
BLACKSBURG     CLOUDY    67  66  97 CALM      30.20F
DUBLIN*        CLOUDY    67  66  97 CALM      30.18S
MARION*        DRIZZLE   64  62  94 CALM      30.21S
HILLSVILLE*    LGT RAIN  64  63  97 CALM      30.19S
RICHLANDS*     FAIR      65  31  28 CALM      30.18S
WISE*          CLOUDY    63  57  82 S3        30.18S
ABINGDON*      LGT RAIN  67  63  85 CALM      30.16S
$$

MDZ021>025-VAZ099-100-310900-
SOUTHERN MARYLAND AND THE DELMARVA PENINSULA

CITY           SKY/WX    TMP DP  RH WIND       PRES   REMARKS
PATUXENT RIVER CLOUDY    75  65  70 SW9       30.07F
BAY BRIDGE APT   N/A     77  64  65 SW5       30.06F
LEONARDTOWN    CLOUDY    73  64  73 CALM      30.09F
DOVER          CLOUDY    75  69  81 SW9       30.04S
GEORGETOWN     CLOUDY    73  66  78 SW7       30.08S
EASTON         NOT AVBL
CAMBRIDGE      CLOUDY    77  68  73 CALM      30.07S
SALISBURY      CLOUDY    71  67  87 SW5       30.08F
OCEAN CITY     CLOUDY    75  68  78 SW8       30.09S
WALLOPS ISLAND CLOUDY    74  71  91 SW5       30.10F
ACCOMACK*      CLOUDY    72  61  68 S5        30.09F
$$

NCZ012>017-030>032-310900-
NORTH CENTRAL AND EASTERN NORTH CAROLINA

CITY           SKY/WX    TMP DP  RH WIND       PRES   REMARKS
ROANOKE RAPIDS PTSUNNY   70  64  83 CALM      30.11S
RALEIGH        CLOUDY    71  67  87 CALM      30.11F
ELIZABETH CITY CLOUDY    74  70  87 S8        30.12R
AHOSKIE*       CLOUDY    68  66  92 CALM      30.12R
EDENTON*       CLOUDY    74  67  77 CALM      30.12S
CURRITUCK*     CLOUDY    74  71  90 CALM      30.11S
KILL DEVIL HLS CLOUDY    76  72  88 SW5       30.11R
MANTEO         CLOUDY    76  72  86 SW7       30.13R
CAPE HATTERAS  CLOUDY    74  71  91 W3        30.12S
TARBORO*       CLOUDY    71  68  92 CALM      30.12S
GOLDSBORO      CLOUDY    71  68  88 E1        30.09F
WASHINGTON     LGT RAIN  72  69  90 CALM      30.11F
GREENVILLE     CLOUDY    72  70  94 CALM      30.13S
NEW BERN       CLOUDY    73  70  90 CALM      30.12F
WILMINGTON     CLOUDY    76  73  91 E5        30.08F
$$

VAZ048-310900-
ELSEWHERE

CITY           SKY/WX    TMP DP  RH WIND       PRES   REMARKS
HARRISBURG PA  MOCLDY    72  67  84 CALM      30.04S
BALTIMORE      CLOUDY    75  65  70 SW3       30.05S
ANNAPOLIS      CLOUDY    76  64  66 CALM      30.05S
ANDREWS AFB    CLOUDY    74  65  73 S7        30.06F
PHILADELPHIA   CLOUDY    78  66  66 SW10      30.04F
HENDERSON NC   CLOUDY    70  64  82 CALM      30.12S
GREENSBORO     LGT RAIN  68  66  93 CALM      30.12F
ROCKY MOUNT    CLOUDY    72  66  81 CALM      30.11S
$$

VAZ100-310900-
MARINE

STATION/POSITION TIME  TEMP    WIND        PRES    WAVE   SWELL
                       AIR SEA DIR/SP/G            HT/PER HT/PER
                 (UTC) (F)     (DEG/KT/KT) (MB)    (FT/S) (FT/S)
15NM E FENWICK I 0750   78 78  210/ 14/ 16 1018.7S   2/10   2/10
THOMAS POINT MD  0800   77 78  210/ 13/ 14 1018.2F
GOOSES REEF MD   0800   78 79  220/  8/ 10 1019.1F
POTOMAC MD       0800   77 79  240/ 12/ 14 1017.7F   1/ 2
STINGRAY PT      0700   78 79  200/  8/ 10 1019.5S   1
JAMESTOWN VA     0800   76 81  230/  6/  8   N/A
CHESAPEAKE LGHT  0700   77     220/  6/  7 1020.2S
CAPE HENRY BUOY  0728      79                N/A     3/10   2/11
1ST LANDING BUOY 0800      79              1018.9S   1/ 5
CAPE CHARLES BUO 0726      79                N/A     2/11   2/11
OFFSHORE WE BUOY 0711      78                N/A     3/10   3/10
64NM E OF VA BCH 0750   77 78  290/  4/  4 1019.2F   3/10   3/10
44100 DUCK FRF   0724      78                N/A     3/10   2/11
44056 DUCK FRF   0711      79                N/A     2/10   2/11
DIAMOND SHLS NC  0750   80 83   20/  4/  6 1019.9F   3/10   3/10
CAPE LOOKOUT NC  0700   79     120/  6/  7 1019.5S
$$



USA.gov is the U.S. government's official web portal to all federal, state and local government web resources and services.